Regional Weather Roundup
Issued by NWS

Home | Current Version | Previous Version | Graphics & Text | Print | Product List | Glossary On
Versions: 1 2 3 4 5 6 7 8 9 10 11 12 13 14 15 16 17 18 19 20 21 22 23 24 25 26 27 28 29 30 31 32 33 34 35 36 37 38 39 40 41 42 43 44 45 46 47 48 49 50
000
ASUS45 KABQ 281710
RWRNM
WEATHER ROUNDUP FOR NEW MEXICO
NATIONAL WEATHER SERVICE ALBUQUERQUE NM
1100 AM MDT SAT MAR 28 2015

NOTE: "FAIR" MEANS FEW OR NO CLOUDS BELOW 12,000 FEET AGL WITH NO
       SIGNIFICANT WEATHER OR OBSTRUCTIONS TO VISION.

      THIS PRODUCT IS RELEASED AS TWO VERSIONS.  ONE VERSION NEAR
      THE TOP OF THE HOUR CONTAINING PRELIMINARY DATA FROM ALBUQUERQUE
      AND OTHER STATIONS.  A FINAL VERSION WITH ADDITIONAL DATA IS
      ISSUED ABOUT 10 MINUTES AFTER THE HOUR.

NMZ501-503-504-510>518-281800-
NORTHWEST PLATEAU/NORTHCENTRAL MOUNTAINS

CITY           SKY/WX    TMP DP  RH WIND       PRES   REMARKS
FARMINGTON     SUNNY     60  26  27 E8        30.24F
LOS ALAMOS     SUNNY     56  23  28 E3        30.33S
SANTA FE       SUNNY     65  20  17 N8        30.28F
TAOS           SUNNY     55  23  28 W3        30.32F
ANGEL FIRE     FAIR      56  18  22 E3        30.34F

$$
NMZ402-403-502-505>509-281800-
WESTCENTRAL MOUNTAINS/SOUTHWEST MOUNTAINS

CITY           SKY/WX    TMP DP  RH WIND       PRES   REMARKS
GALLUP         SUNNY     63  19  18 W6        30.31F
GRANTS         SUNNY     60  19  20 SE3       30.32F
SILVER CITY    SUNNY     73  16  11 NW8       30.28F

$$
NMZ407-409-411-412-281800-
SOUTHERN DESERTS

CITY           SKY/WX    TMP DP  RH WIND       PRES   REMARKS
LORDSBURG      FAIR      68  21  17 NW7       30.24F
DEMING         SUNNY     72  21  14 CALM      30.22F
LAS CRUCES     SUNNY     72  18  13 N5        30.23F
HOLLOMAN AFB   MOSUNNY   69  19  14 S1        30.19S
ALAMOGORDO     MOSUNNY   68  18  14 CALM      30.21S
T OR C         SUNNY     71  21  15 E7        30.23F

$$
NMZ519>523-281800-
CENTRAL VALLEYS/CENTRAL HIGHLANDS

CITY           SKY/WX    TMP DP  RH WIND       PRES   REMARKS
ALBUQUERQUE    SUNNY     64  20  18 NE5       30.26F
DOUBLE EAGLE   SUNNY     63  21  20 S7        30.29
MORIARTY ARPT  FAIR      66  17  15 N6        30.28F
CLINES CORNERS SUNNY     65  17  15 NW13      30.28S
BELEN          FAIR      64  18  16 E5        30.26F
SOCORRO        FAIR      67  18  15 CALM      30.24F

$$
NMZ524>526-539-540-281800-
SOUTHCENTRAL MOUNTAINS

CITY           SKY/WX    TMP DP  RH WIND       PRES   REMARKS
RUIDOSO        SUNNY     64  18  16 NW21G28   30.31S

$$
NMZ527>531-281800-
NORTHEAST HIGHLANDS/NORTHEAST PLAINS

CITY           SKY/WX    TMP DP  RH WIND       PRES   REMARKS
LAS VEGAS      SUNNY     64  15  15 NW6       30.27S
RATON          SUNNY     66  21  18 S10       30.20F
CLAYTON        SUNNY     75  24  15 NW7       30.13S

$$
NMZ532>537-281800-
EASTCENTRAL PLAINS

CITY           SKY/WX    TMP DP  RH WIND       PRES   REMARKS
TUCUMCARI      SUNNY     74  28  18 NW9       30.11S
CANNON AFB     SUNNY     76  30  18 N15       30.11R
CLOVIS AIRPORT SUNNY     77  34  20 N16       30.11S

$$
NMZ028-029-538-281800-
SOUTHEAST PLAINS

CITY           SKY/WX    TMP DP  RH WIND       PRES   REMARKS
ROSWELL        SUNNY     72  33  24 CALM      30.12F
ARTESIA        SUNNY     70  30  23 VRB3      30.13S
CARLSBAD       SUNNY     74  29  19 N5        30.10S
HOBBS          SUNNY     79  27  14 W14G20    30.10F


$$


USA.gov is the U.S. government's official web portal to all federal, state and local government web resources and services.